Flag for India Weather past 2 weeks in Kolkata, West Bengal, India

84 °F

Light rain. Scattered clouds.

Feels Like: 96 °F
Forecast: 76 / 85 °F
Wind: 8 mph from Southeast

Location: Calcutta / Dum Dum

Current Time: Oct 13, 2015 at 5:55:37 PM

Latest Report: Oct 13, 2015 at 5:20 PM

Visibility: 2 mi

Pressure: 29.77 "Hg

Humidity: 84%

Dew point: 79 °F

Location of KolkataLocation

Historic Weather in Kolkata — Graph


Kolkata temperature yesterday

Maximum temperature yesterday: 91 °F (at 11:50 AM)
Minimum temperature yesterday: 77 °F (at 4:50 AM)
Average temperature yesterday: 83 °F

Past Weeks' High & Low Weather Summary

High95 °F (Sep 30, 1:20 PM)94% (Oct 4, 2:20 AM)29.92 "Hg (Oct 4, 2:20 AM)
Low77 °F (Oct 12, 4:50 AM)44% (Oct 9, 3:20 PM)29.56 "Hg (Oct 9, 4:20 PM)
Average86 °F76%29.76 "Hg
* Reported Sep 28 4:50 PM — Oct 13 4:50 PM, Kolkata, Weather by CustomWeather, © 2015

Note: Actual official high and low records may vary slightly from our data, if they occured in-between our weather recording intervals... More about our weather records


Kolkata weather history for previous 24 hours

Time TempWeatherWind HumidityBarometerVisibility
4:50 PM
Tue, Oct 13
86 °FLight rain. Scattered clouds.6 mph79%29.77 "Hg2 mi
4:20 PM86 °FLight rain. Scattered clouds.5 mph75%29.77 "Hg2 mi
3:50 PM86 °FScattered clouds.6 mph75%29.74 "Hg2 mi
3:20 PM86 °FScattered clouds.6 mph70%29.74 "Hg2 mi
2:50 PM90 °FScattered clouds.6 mph59%29.77 "Hg2 mi
2:20 PM88 °FScattered clouds.7 mph62%29.77 "Hg2 mi
1:50 PM88 °FScattered clouds.6 mph62%29.77 "Hg2 mi
1:20 PM90 °FScattered clouds.6 mph59%29.77 "Hg2 mi
12:50 PM90 °FScattered clouds.6 mph63%29.80 "Hg2 mi
12:20 PM90 °FScattered clouds.5 mph63%29.83 "Hg2 mi
11:50 AM90 °FScattered clouds.6 mph63%29.86 "Hg2 mi
11:20 AM88 °FScattered clouds.6 mph66%29.86 "Hg2 mi
10:50 AM88 °FScattered clouds.6 mph66%29.86 "Hg2 mi
10:20 AM86 °FScattered clouds.6 mph75%29.89 "Hg2 mi
9:50 AM86 °FScattered clouds.6 mph75%29.89 "Hg2 mi
9:20 AM84 °FScattered clouds.6 mph79%29.89 "Hg2 mi
8:50 AM84 °FScattered clouds.5 mph79%29.89 "Hg2 mi
8:20 AM82 °FScattered clouds.5 mph84%29.89 "Hg2 mi
7:50 AM82 °FHaze.5 mph84%29.86 "Hg2 mi
7:20 AM81 °FFog.5 mph89%29.86 "Hg2 mi
6:50 AM79 °FFog.3 mph94%29.86 "Hg2 mi
6:20 AM77 °FFog.3 mph94%29.83 "Hg2 mi
5:50 AM77 °FPassing clouds.5 mph89%29.83 "Hg2 mi
5:20 AM77 °FHaze.3 mph89%29.83 "Hg2 mi
4:50 AM77 °FHaze.5 mph89%29.83 "Hg2 mi
4:20 AM77 °FHaze.5 mph89%29.80 "Hg2 mi
3:50 AM77 °FHaze.6 mph89%29.80 "Hg2 mi
3:20 AM77 °FHaze.6 mph89%29.77 "Hg2 mi
2:50 AM77 °FHaze.6 mph89%29.77 "Hg2 mi
2:20 AM77 °FHaze.5 mph89%29.80 "Hg2 mi
1:50 AM79 °FHaze.No wind89%29.80 "Hg2 mi
1:20 AM79 °FHaze.No wind89%29.83 "Hg2 mi
12:50 AM79 °FHaze.No wind89%29.86 "Hg2 mi
12:20 AM79 °FHaze.No wind89%29.83 "Hg2 mi
11:50 PM
Mon, Oct 12
79 °FHaze.No wind89%29.83 "Hg2 mi
11:20 PM81 °FHaze.No wind84%29.83 "Hg2 mi
10:50 PM81 °FHaze.5 mph84%29.86 "Hg2 mi
10:20 PM81 °FHaze.5 mph84%29.83 "Hg2 mi
9:50 PM81 °FHaze.3 mph84%29.83 "Hg2 mi
8:50 PM81 °FHaze.3 mph84%29.86 "Hg2 mi
8:20 PM81 °FHaze.No wind84%29.83 "Hg2 mi
7:50 PM82 °FHaze.5 mph74%29.83 "Hg2 mi
7:20 PM82 °FHaze.No wind74%29.80 "Hg2 mi
6:50 PM82 °FHaze.3 mph74%29.80 "Hg2 mi
6:20 PM82 °FPassing clouds.No wind74%29.77 "Hg2 mi
5:50 PM82 °FPassing clouds.3 mph74%29.77 "Hg2 mi
5:20 PM84 °FScattered clouds.No wind70%29.74 "Hg2 mi
Weather by CustomWeather, © 2015

See weather overviewHow to use our weather pages